Location: Maignaut
(43.8886°N, 0.4051°E)
Time: 19:46:34
(UTC+00:00)

Okean-O - Pass Details

Date: 17 January 2021
Orbit: 638 x 641 km, 98.2° (Epoch: 28 February)

Event Time Altitude Azimuth Distance (km) Brightness Sun altitude
Rises 18:32:26 0° 163° (SSE) 2,932 6.0 -18.3°
Reaches altitude 10° 18:34:38 10° 163° (SSE) 2,028 5.1 -18.7°
Maximum altitude 18:39:03 84° 75° (ENE) 651 2.5 -19.4°
Drops below altitude 10° 18:43:31 10° 348° (NNW) 2,044 5.2 -20.2°
Sets 18:45:43 0° 348° (NNW) 2,958 6.1 -20.6°
